"Sample Date","Sample Time","Sample Value","Units","Flow Rate","Sample Interval","Number Channels","Micron Size 0","Counts/Channel 0","Micron Size 1","Counts/Channel 1","Micron Size 2","Counts/Channel 2","Micron Size 3","Counts/Channel 3","Micron Size 4","Counts/Channel 4","Micron Size 5","Counts/Channel 5","Micron Size 6","Counts/Channel 6","Micron Size 7","Counts/Channel 7","Micron Size 8","Counts/Channel 8","Micron Size 9","Counts/Channel 9","Micron Size 10","Counts/Channel 10","Micron Size 11","Counts/Channel 11","Micron Size 12","Counts/Channel 12","Micron Size 13","Counts/Channel 13","Micron Size 14","Counts/Channel 14","Micron Size 15","Counts/Channel 15","Micron Size 16","Counts/Channel 16","Micron Size 17","Counts/Channel 17","Micron Size 18","Counts/Channel 18","Micron Size 19","Counts/Channel 19","Micron Size 20","Counts/Channel 20","Micron Size 21","Counts/Channel 21","Micron Size 22","Counts/Channel 22","Micron Size 23","Counts/Channel 23","Micron Size 24","Counts/Channel 24","Micron Size 25","Counts/Channel 25","Micron Size 26","Counts/Channel 26","Micron Size 27","Counts/Channel 27","Micron Size 28","Counts/Channel 28","Micron Size 29","Counts/Channel 29","Micron Size 30","Counts/Channel 30","Micron Size 31","Counts/Channel 31"
"03/09/08","06:00:03",258099.000,"cc",28327.135,6.00,6,0.100,228054.000,0.200,28099.000,0.300,1642.000,0.500,274.000,1.000,30.000,5.000,0
"03/09/08","06:00:09",259252.000,"cc",28310.777,6.00,6,0.100,229305.000,0.200,27994.000,0.300,1590.000,0.500,321.000,1.000,42.000,5.000,0
"03/09/08","06:00:15",255489.000,"cc",28295.377,6.00,6,0.100,226479.000,0.200,27181.000,0.300,1480.000,0.500,304.000,1.000,45.000,5.000,0
"03/09/08","06:00:21",314196.000,"cc",28366.934,6.00,6,0.100,276579.000,0.200,35239.000,0.300,1965.000,0.500,364.000,1.000,49.000,5.000,0
"03/09/08","06:00:27",263588.000,"cc",28347.848,6.00,6,0.100,233154.000,0.200,28472.000,0.300,1585.000,0.500,335.000,1.000,42.000,5.000,0
"03/09/08","06:00:33",224676.000,"cc",28314.285,6.00,6,0.100,199696.000,0.200,23100.000,0.300,1505.000,0.500,337.000,1.000,38.000,5.000,0
"03/09/08","06:00:39",152229.000,"cc",28326.160,6.00,6,0.100,61803.000,0.200,85389.000,0.300,4461.000,0.500,538.000,1.000,38.000,5.000,0
"03/09/08","06:00:45",339830.000,"cc",28338.307,6.00,6,0.100,284666.000,0.200,52137.000,0.300,2580.000,0.500,392.000,1.000,55.000,5.000,0
"03/09/08","06:00:51",392454.000,"cc",28308.662,6.00,6,0.100,337735.000,0.200,51494.000,0.300,2721.000,0.500,448.000,1.000,56.000,5.000,0
"03/09/08","06:00:57",309319.000,"cc",28311.617,6.00,6,0.100,243446.000,0.200,62450.000,0.300,2998.000,0.500,382.000,1.000,43.000,5.000,0
"03/09/08","06:01:03",376167.000,"cc",28276.414,6.00,6,0.100,328113.000,0.200,45483.000,0.300,2157.000,0.500,352.000,1.000,62.000,5.000,0
"03/09/08","06:01:09",197738.000,"cc",28311.479,6.00,6,0.100,126984.000,0.200,67236.000,0.300,3116.000,0.500,368.000,1.000,34.000,5.000,0
"03/09/08","06:01:15",260526.000,"cc",28334.518,6.00,6,0.100,231234.000,0.200,27417.000,0.300,1483.000,0.500,347.000,1.000,45.000,5.000,0
"03/09/08","06:01:21",291472.000,"cc",28367.398,6.00,6,0.100,244004.000,0.200,44895.000,0.300,2191.000,0.500,350.000,1.000,32.000,5.000,0
"03/09/08","06:01:27",153621.000,"cc",28348.578,6.00,6,0.100,74537.000,0.200,75159.000,0.300,3490.000,0.500,395.000,1.000,40.000,5.000,0
"03/09/08","06:01:33",302003.000,"cc",28255.727,6.00,6,0.100,240735.000,0.200,58307.000,0.300,2587.000,0.500,330.000,1.000,44.000,5.000,0
"03/09/08","06:01:39",292917.000,"cc",28361.488,6.00,6,0.100,232425.000,0.200,57535.000,0.300,2587.000,0.500,333.000,1.000,37.000,5.000,0
"03/09/08","06:01:45",255753.000,"cc",28278.260,6.00,6,0.100,191359.000,0.200,61028.000,0.300,2877.000,0.500,433.000,1.000,56.000,5.000,0
"03/09/08","06:01:51",258170.000,"cc",28276.883,6.00,6,0.100,207656.000,0.200,47742.000,0.300,2334.000,0.500,374.000,1.000,64.000,5.000,0
"03/09/08","06:01:57",220791.000,"cc",28350.611,6.00,6,0.100,164303.000,0.200,53773.000,0.300,2360.000,0.500,319.000,1.000,36.000,5.000,0
"03/09/08","06:02:03",349228.000,"cc",28361.940,6.00,6,0.100,295058.000,0.200,51517.000,0.300,2281.000,0.500,319.000,1.000,53.000,5.000,0
"03/09/08","06:02:09",175216.000,"cc",28323.482,6.00,6,0.100,157327.000,0.200,16611.000,0.300,994.000,0.500,255.000,1.000,29.000,5.000,0
"03/09/08","06:02:15",250700.000,"cc",28370.301,6.00,6,0.100,223964.000,0.200,24911.000,0.300,1458.000,0.500,321.000,1.000,46.000,5.000,0
"03/09/08","06:02:21",243838.000,"cc",28293.305,6.00,6,0.100,217050.000,0.200,24940.000,0.300,1445.000,0.500,347.000,1.000,56.000,5.000,0
"03/09/08","06:02:27",284617.000,"cc",28292.666,6.00,6,0.100,252411.000,0.200,29991.000,0.300,1721.000,0.500,435.000,1.000,59.000,5.000,0
"03/09/08","06:02:33",215924.000,"cc",28295.625,6.00,6,0.100,154361.000,0.200,58131.000,0.300,3003.000,0.500,382.000,1.000,47.000,5.000,0
"03/09/08","06:02:39",139850.000,"cc",28319.264,6.00,6,0.100,67047.000,0.200,68619.000,0.300,3621.000,0.500,501.000,1.000,62.000,5.000,0
"03/09/08","06:02:45",256821.000,"cc",28322.260,6.00,6,0.100,189066.000,0.200,63727.000,0.300,3479.000,0.500,487.000,1.000,62.000,5.000,0
"03/09/08","06:02:51",306125.000,"cc",28274.625,6.00,6,0.100,242397.000,0.200,60036.000,0.300,3209.000,0.500,418.000,1.000,65.000,5.000,0
"03/09/08","06:02:57",286305.000,"cc",28275.727,6.00,6,0.100,253128.000,0.200,30910.000,0.300,1786.000,0.500,408.000,1.000,73.000,5.000,0
"03/09/08","06:03:03",313989.000,"cc",28308.748,6.00,6,0.100,276596.000,0.200,35187.000,0.300,1852.000,0.500,305.000,1.000,49.000,5.000,0
"03/09/08","06:03:09",274712.000,"cc",28333.336,6.00,6,0.100,231738.000,0.200,40451.000,0.300,2101.000,0.500,367.000,1.000,55.000,5.000,0
"03/09/08","06:03:15",297533.000,"cc",28355.037,6.00,6,0.100,262073.000,0.200,33128.000,0.300,1846.000,0.500,425.000,1.000,61.000,5.000,0
"03/09/08","06:03:21",238602.000,"cc",28368.275,6.00,6,0.100,210949.000,0.200,25704.000,0.300,1537.000,0.500,360.000,1.000,52.000,5.000,0
"03/09/08","06:03:27",256160.000,"cc",28330.551,6.00,6,0.100,226822.000,0.200,27360.000,0.300,1587.000,0.500,338.000,1.000,53.000,5.000,0
"03/09/08","06:03:33",319033.000,"cc",28280.182,6.00,6,0.100,265379.000,0.200,50489.000,0.300,2666.000,0.500,428.000,1.000,71.000,5.000,0
"03/09/08","06:03:39",311292.000,"cc",28297.723,6.00,6,0.100,273368.000,0.200,35430.000,0.300,1947.000,0.500,451.000,1.000,96.000,5.000,0
"03/09/08","06:03:45",218752.000,"cc",28327.877,6.00,6,0.100,194820.000,0.200,22021.000,0.300,1397.000,0.500,431.000,1.000,83.000,5.000,0
"03/09/08","06:03:51",274152.000,"cc",28347.504,6.00,6,0.100,242777.000,0.200,29204.000,0.300,1642.000,0.500,448.000,1.000,81.000,5.000,0
"03/09/08","06:03:57",299989.000,"cc",28295.826,6.00,6,0.100,265036.000,0.200,33000.000,0.300,1580.000,0.500,335.000,1.000,38.000,5.000,0
"03/09/08","06:04:03",301273.000,"cc",28336.941,6.00,6,0.100,266528.000,0.200,32866.000,0.300,1554.000,0.500,288.000,1.000,37.000,5.000,0
"03/09/08","06:04:09",285271.000,"cc",28351.940,6.00,6,0.100,253279.000,0.200,30176.000,0.300,1478.000,0.500,297.000,1.000,41.000,5.000,0
"03/09/08","06:04:15",268584.000,"cc",28318.119,6.00,6,0.100,237281.000,0.200,29453.000,0.300,1492.000,0.500,311.000,1.000,47.000,5.000,0
"03/09/08","06:04:21",234978.000,"cc",28310.641,6.00,6,0.100,199010.000,0.200,33940.000,0.300,1660.000,0.500,319.000,1.000,49.000,5.000,0
"03/09/08","06:04:27",245906.000,"cc",28297.154,6.00,6,0.100,219152.000,0.200,25013.000,0.300,1313.000,0.500,354.000,1.000,74.000,5.000,0
"03/09/08","06:04:33",298120.000,"cc",28321.889,6.00,6,0.100,264231.000,0.200,31895.000,0.300,1618.000,0.500,323.000,1.000,53.000,5.000,0
"03/09/08","06:04:39",264723.000,"cc",28302.012,6.00,6,0.100,234967.000,0.200,27894.000,0.300,1472.000,0.500,342.000,1.000,48.000,5.000,0
"03/09/08","06:04:45",160594.000,"cc",28277.529,6.00,6,0.100,144090.000,0.200,15127.000,0.300,978.000,0.500,348.000,1.000,51.000,5.000,0
"03/09/08","06:04:51",245079.000,"cc",28368.924,6.00,6,0.100,218396.000,0.200,24933.000,0.300,1363.000,0.500,333.000,1.000,54.000,5.000,0
"03/09/08","06:04:57",231648.000,"cc",28295.711,6.00,6,0.100,180323.000,0.200,48285.000,0.300,2484.000,0.500,473.000,1.000,83.000,5.000,0
"03/09/08","06:05:03",299476.000,"cc",28287.910,6.00,6,0.100,215374.000,0.200,79583.000,0.300,3870.000,0.500,571.000,1.000,78.000,5.000,0
"03/09/08","06:05:09",341419.000,"cc",28268.109,6.00,6,0.100,283633.000,0.200,54846.000,0.300,2569.000,0.500,325.000,1.000,46.000,5.000,0
"03/09/08","06:05:15",309174.000,"cc",28326.022,6.00,6,0.100,261927.000,0.200,44835.000,0.300,2064.000,0.500,306.000,1.000,42.000,5.000,0
"03/09/08","06:05:21",307445.000,"cc",28338.555,6.00,6,0.100,272263.000,0.200,33096.000,0.300,1698.000,0.500,343.000,1.000,45.000,5.000,0
"03/09/08","06:05:27",198238.000,"cc",28325.395,6.00,6,0.100,127289.000,0.200,67512.000,0.300,3021.000,0.500,373.000,1.000,43.000,5.000,0
"03/09/08","06:05:33",239818.000,"cc",28257.797,6.00,6,0.100,212776.000,0.200,24755.000,0.300,1693.000,0.500,529.000,1.000,65.000,5.000,0
"03/09/08","06:05:39",178559.000,"cc",28303.143,6.00,6,0.100,159217.000,0.200,17292.000,0.300,1438.000,0.500,536.000,1.000,76.000,5.000,0
"03/09/08","06:05:45",208839.000,"cc",28359.008,6.00,6,0.100,186234.000,0.200,20674.000,0.300,1470.000,0.500,413.000,1.000,48.000,5.000,0
"03/09/08","06:05:51",314582.000,"cc",28378.943,6.00,6,0.100,277588.000,0.200,34548.000,0.300,1916.000,0.500,455.000,1.000,75.000,5.000,0
"03/09/08","06:05:57",266201.000,"cc",28286.289,6.00,6,0.100,235820.000,0.200,28196.000,0.300,1661.000,0.500,434.000,1.000,90.000,5.000,0
"03/09/08","06:06:03",345781.000,"cc",28327.723,6.00,6,0.100,293887.000,0.200,48649.000,0.300,2742.000,0.500,446.000,1.000,57.000,5.000,0
"03/09/08","06:06:09",375454.000,"cc",28324.576,6.00,6,0.100,301631.000,0.200,68932.000,0.300,4060.000,0.500,727.000,1.000,104.000,5.000,0
"03/09/08","06:06:15",340175.000,"cc",28265.229,6.00,6,0.100,282774.000,0.200,53765.000,0.300,2975.000,0.500,572.000,1.000,89.000,5.000,0
"03/09/08","06:06:21",228896.000,"cc",28325.748,6.00,6,0.100,160749.000,0.200,64285.000,0.300,3344.000,0.500,449.000,1.000,69.000,5.000,0
"03/09/08","06:06:27",217048.000,"cc",28368.318,6.00,6,0.100,135181.000,0.200,77110.000,0.300,4180.000,0.500,520.000,1.000,57.000,5.000,0
"03/09/08","06:06:33",277329.000,"cc",28348.477,6.00,6,0.100,206578.000,0.200,66237.000,0.300,3944.000,0.500,512.000,1.000,58.000,5.000,0
"03/09/08","06:06:39",267634.000,"cc",28251.260,6.00,6,0.100,190376.000,0.200,72383.000,0.300,4256.000,0.500,544.000,1.000,75.000,5.000,0
"03/09/08","06:06:45",286691.000,"cc",28274.359,6.00,6,0.100,250925.000,0.200,33137.000,0.300,2081.000,0.500,468.000,1.000,80.000,5.000,0
"03/09/08","06:06:51",240164.000,"cc",28298.277,6.00,6,0.100,173909.000,0.200,62287.000,0.300,3422.000,0.500,480.000,1.000,66.000,5.000,0
"03/09/08","06:06:57",339730.000,"cc",28385.135,6.00,6,0.100,281927.000,0.200,54444.000,0.300,2922.000,0.500,389.000,1.000,48.000,5.000,0
"03/09/08","06:07:03",236284.000,"cc",28311.717,6.00,6,0.100,157040.000,0.200,74495.000,0.300,4279.000,0.500,423.000,1.000,47.000,5.000,0
"03/09/08","06:07:09",314967.000,"cc",28279.248,6.00,6,0.100,241233.000,0.200,69285.000,0.300,3918.000,0.500,475.000,1.000,56.000,5.000,0
"03/09/08","06:07:15",190079.000,"cc",28351.514,6.00,6,0.100,116565.000,0.200,69024.000,0.300,3873.000,0.500,543.000,1.000,74.000,5.000,0
"03/09/08","06:07:21",278415.000,"cc",28319.930,6.00,6,0.100,201657.000,0.200,72449.000,0.300,3740.000,0.500,496.000,1.000,73.000,5.000,0
"03/09/08","06:07:27",362395.000,"cc",28340.981,6.00,6,0.100,314758.000,0.200,44889.000,0.300,2314.000,0.500,380.000,1.000,54.000,5.000,0
"03/09/08","06:07:33",255927.000,"cc",28305.897,6.00,6,0.100,184029.000,0.200,67957.000,0.300,3449.000,0.500,438.000,1.000,54.000,5.000,0
"03/09/08","06:07:39",247619.000,"cc",28329.313,6.00,6,0.100,191292.000,0.200,52967.000,0.300,2857.000,0.500,443.000,1.000,60.000,5.000,0
"03/09/08","06:07:45",243150.000,"cc",28295.482,6.00,6,0.100,156256.000,0.200,82431.000,0.300,3896.000,0.500,510.000,1.000,57.000,5.000,0
"03/09/08","06:07:51",280926.000,"cc",28319.799,6.00,6,0.100,225124.000,0.200,52696.000,0.300,2623.000,0.500,429.000,1.000,54.000,5.000,0
"03/09/08","06:07:57",277131.000,"cc",28321.602,6.00,6,0.100,222120.000,0.200,52001.000,0.300,2568.000,0.500,389.000,1.000,53.000,5.000,0
"03/09/08","06:08:03",321698.000,"cc",28357.299,6.00,6,0.100,257205.000,0.200,61151.000,0.300,2907.000,0.500,376.000,1.000,59.000,5.000,0
"03/09/08","06:08:09",368350.000,"cc",28286.481,6.00,6,0.100,307722.000,0.200,57199.000,0.300,2867.000,0.500,493.000,1.000,69.000,5.000,0
"03/09/08","06:08:15",259482.000,"cc",28237.742,6.00,6,0.100,181144.000,0.200,73937.000,0.300,3823.000,0.500,501.000,1.000,77.000,5.000,0
"03/09/08","06:08:21",376887.000,"cc",28319.822,6.00,6,0.100,327875.000,0.200,46133.000,0.300,2359.000,0.500,463.000,1.000,57.000,5.000,0
"03/09/08","06:08:27",269151.000,"cc",28338.272,6.00,6,0.100,212584.000,0.200,53356.000,0.300,2663.000,0.500,473.000,1.000,75.000,5.000,0
"03/09/08","06:08:33",294096.000,"cc",28329.664,6.00,6,0.100,231659.000,0.200,58959.000,0.300,2971.000,0.500,445.000,1.000,62.000,5.000,0
"03/09/08","06:08:39",274726.000,"cc",28316.043,6.00,6,0.100,243290.000,0.200,29150.000,0.300,1775.000,0.500,460.000,1.000,51.000,5.000,0
"03/09/08","06:08:45",379810.000,"cc",28298.053,6.00,6,0.100,331329.000,0.200,45517.000,0.300,2419.000,0.500,472.000,1.000,73.000,5.000,0
"03/09/08","06:08:51",198124.000,"cc",28343.533,6.00,6,0.100,175971.000,0.200,19982.000,0.300,1575.000,0.500,516.000,1.000,80.000,5.000,0
"03/09/08","06:08:57",320456.000,"cc",28328.092,6.00,6,0.100,280711.000,0.200,36763.000,0.300,2348.000,0.500,555.000,1.000,79.000,5.000,0
"03/09/08","06:09:03",217971.000,"cc",28368.813,6.00,6,0.100,193495.000,0.200,22185.000,0.300,1742.000,0.500,479.000,1.000,70.000,5.000,0
"03/09/08","06:09:09",334342.000,"cc",28311.684,6.00,6,0.100,292781.000,0.200,38590.000,0.300,2323.000,0.500,561.000,1.000,87.000,5.000,0
"03/09/08","06:09:15",347155.000,"cc",28257.625,6.00,6,0.100,290401.000,0.200,53404.000,0.300,2810.000,0.500,483.000,1.000,57.000,5.000,0
"03/09/08","06:09:21",346752.000,"cc",28313.260,6.00,6,0.100,304713.000,0.200,39463.000,0.300,2071.000,0.500,447.000,1.000,58.000,5.000,0
"03/09/08","06:09:27",355726.000,"cc",28325.688,6.00,6,0.100,312156.000,0.200,40911.000,0.300,2127.000,0.500,461.000,1.000,71.000,5.000,0
"03/09/08","06:09:33",380141.000,"cc",28355.170,6.00,6,0.100,328366.000,0.200,48698.000,0.300,2573.000,0.500,441.000,1.000,63.000,5.000,0
"03/09/08","06:09:39",229522.000,"cc",28269.139,6.00,6,0.100,203610.000,0.200,24026.000,0.300,1523.000,0.500,315.000,1.000,48.000,5.000,0
"03/09/08","06:09:45",300641.000,"cc",28327.684,6.00,6,0.100,264776.000,0.200,33592.000,0.300,1857.000,0.500,370.000,1.000,46.000,5.000,0
"03/09/08","06:09:51",314250.000,"cc",28308.346,6.00,6,0.100,276057.000,0.200,35767.000,0.300,2037.000,0.500,351.000,1.000,38.000,5.000,0
"03/09/08","06:09:57",220871.000,"cc",28365.406,6.00,6,0.100,195716.000,0.200,23063.000,0.300,1637.000,0.500,387.000,1.000,68.000,5.000,0
"03/09/08","06:10:03",227773.000,"cc",28294.775,6.00,6,0.100,201347.000,0.200,24014.000,0.300,1843.000,0.500,506.000,1.000,63.000,5.000,0
"03/09/08","06:10:09",262391.000,"cc",28323.434,6.00,6,0.100,229600.000,0.200,30010.000,0.300,2146.000,0.500,564.000,1.000,71.000,5.000,0
"03/09/08","06:10:15",280718.000,"cc",28301.674,6.00,6,0.100,235040.000,0.200,42527.000,0.300,2505.000,0.500,564.000,1.000,82.000,5.000,0
"03/09/08","06:10:21",288600.000,"cc",28329.467,6.00,6,0.100,241207.000,0.200,44175.000,0.300,2597.000,0.500,559.000,1.000,62.000,5.000,0
"03/09/08","06:10:27",228870.000,"cc",28263.150,6.00,6,0.100,188448.000,0.200,37163.000,0.300,2563.000,0.500,628.000,1.000,68.000,5.000,0
"03/09/08","06:10:33",296978.000,"cc",28337.772,6.00,6,0.100,232191.000,0.200,60965.000,0.300,3292.000,0.500,473.000,1.000,57.000,5.000,0
"03/09/08","06:10:39",308577.000,"cc",28370.781,6.00,6,0.100,258420.000,0.200,46890.000,0.300,2664.000,0.500,528.000,1.000,75.000,5.000,0
"03/09/08","06:10:45",299897.000,"cc",28248.715,6.00,6,0.100,249237.000,0.200,47421.000,0.300,2696.000,0.500,479.000,1.000,64.000,5.000,0
"03/09/08","06:10:51",254644.000,"cc",28318.277,6.00,6,0.100,224675.000,0.200,27755.000,0.300,1718.000,0.500,438.000,1.000,58.000,5.000,0
"03/09/08","06:10:57",275999.000,"cc",28389.410,6.00,6,0.100,232594.000,0.200,40582.000,0.300,2272.000,0.500,476.000,1.000,75.000,5.000,0
"03/09/08","06:11:03",253596.000,"cc",28250.027,6.00,6,0.100,193703.000,0.200,56304.000,0.300,2961.000,0.500,556.000,1.000,72.000,5.000,0
"03/09/08","06:11:09",291038.000,"cc",28331.346,6.00,6,0.100,256784.000,0.200,31730.000,0.300,1928.000,0.500,513.000,1.000,83.000,5.000,0
"03/09/08","06:11:15",345568.000,"cc",28334.272,6.00,6,0.100,303404.000,0.200,39569.000,0.300,2055.000,0.500,472.000,1.000,68.000,5.000,0
"03/09/08","06:11:21",352382.000,"cc",28296.354,6.00,6,0.100,253995.000,0.200,92353.000,0.300,5295.000,0.500,656.000,1.000,83.000,5.000,0
"03/09/08","06:11:27",194972.000,"cc",28332.506,6.00,6,0.100,129985.000,0.200,60923.000,0.300,3498.000,0.500,493.000,1.000,73.000,5.000,0
"03/09/08","06:11:33",260352.000,"cc",28311.016,6.00,6,0.100,199606.000,0.200,56860.000,0.300,3237.000,0.500,568.000,1.000,81.000,5.000,0
"03/09/08","06:11:39",210980.000,"cc",28290.082,6.00,6,0.100,90818.000,0.200,112963.000,0.300,6513.000,0.500,621.000,1.000,64.000,5.000,1.000
"03/09/08","06:11:45",228268.000,"cc",28303.115,6.00,6,0.100,144457.000,0.200,79105.000,0.300,4247.000,0.500,408.000,1.000,51.000,5.000,0
"03/09/08","06:11:51",328926.000,"cc",28315.785,6.00,6,0.100,288008.000,0.200,38419.000,0.300,2019.000,0.500,431.000,1.000,49.000,5.000,0
"03/09/08","06:11:57",356816.000,"cc",28350.063,6.00,6,0.100,310089.000,0.200,43838.000,0.300,2360.000,0.500,458.000,1.000,71.000,5.000,0
"03/09/08","06:12:03",246549.000,"cc",28344.815,6.00,6,0.100,177824.000,0.200,64725.000,0.300,3484.000,0.500,454.000,1.000,62.000,5.000,0
"03/09/08","06:12:09",323938.000,"cc",28359.315,6.00,6,0.100,283289.000,0.200,37825.000,0.300,2245.000,0.500,493.000,1.000,86.000,5.000,0
"03/09/08","06:12:15",323266.000,"cc",28294.010,6.00,6,0.100,270650.000,0.200,49511.000,0.300,2574.000,0.500,464.000,1.000,67.000,5.000,0
"03/09/08","06:12:21",297968.000,"cc",28360.369,6.00,6,0.100,258826.000,0.200,36473.000,0.300,2124.000,0.500,480.000,1.000,65.000,5.000,0
"03/09/08","06:12:27",338959.000,"cc",28291.039,6.00,6,0.100,274499.000,0.200,60373.000,0.300,3456.000,0.500,552.000,1.000,79.000,5.000,0
"03/09/08","06:12:33",196680.000,"cc",28277.754,6.00,6,0.100,90616.000,0.200,99958.000,0.300,5446.000,0.500,587.000,1.000,73.000,5.000,0
"03/09/08","06:12:39",204092.000,"cc",28307.826,6.00,6,0.100,94175.000,0.200,103903.000,0.300,5468.000,0.500,489.000,1.000,57.000,5.000,0
"03/09/08","06:12:45",404781.000,"cc",28321.051,6.00,6,0.100,293985.000,0.200,102917.000,0.300,7268.000,0.500,558.000,1.000,53.000,5.000,0
"03/09/08","06:12:51",337423.000,"cc",28352.022,6.00,6,0.100,267852.000,0.200,65336.000,0.300,3620.000,0.500,559.000,1.000,56.000,5.000,0
"03/09/08","06:12:57",158225.000,"cc",28281.889,6.00,6,0.100,105025.000,0.200,49464.000,0.300,3002.000,0.500,652.000,1.000,82.000,5.000,0
"03/09/08","06:13:03",331191.000,"cc",28248.764,6.00,6,0.100,273681.000,0.200,53314.000,0.300,3303.000,0.500,761.000,1.000,132.000,5.000,0
"03/09/08","06:13:09",396594.000,"cc",28306.865,6.00,6,0.100,343824.000,0.200,49325.000,0.300,2714.000,0.500,615.000,1.000,116.000,5.000,0
"03/09/08","06:13:15",346404.000,"cc",28347.684,6.00,6,0.100,289955.000,0.200,53154.000,0.300,2708.000,0.500,507.000,1.000,80.000,5.000,0
"03/09/08","06:13:21",355011.000,"cc",28334.981,6.00,6,0.100,310574.000,0.200,41643.000,0.300,2284.000,0.500,445.000,1.000,65.000,5.000,0
"03/09/08","06:13:27",181106.000,"cc",28318.270,6.00,6,0.100,160566.000,0.200,18223.000,0.300,1635.000,0.500,583.000,1.000,99.000,5.000,0
"03/09/08","06:13:33",212292.000,"cc",28352.078,6.00,6,0.100,174644.000,0.200,34800.000,0.300,2242.000,0.500,519.000,1.000,87.000,5.000,0
"03/09/08","06:13:39",269197.000,"cc",28326.703,6.00,6,0.100,236508.000,0.200,29919.000,0.300,2019.000,0.500,640.000,1.000,111.000,5.000,0
"03/09/08","06:13:45",249938.000,"cc",28314.832,6.00,6,0.100,208609.000,0.200,38766.000,0.300,2106.000,0.500,395.000,1.000,62.000,5.000,0
"03/09/08","06:13:51",325735.000,"cc",28308.133,6.00,6,0.100,284098.000,0.200,39035.000,0.300,2154.000,0.500,385.000,1.000,63.000,5.000,0
"03/09/08","06:13:57",281731.000,"cc",28321.326,6.00,6,0.100,247817.000,0.200,31512.000,0.300,1850.000,0.500,483.000,1.000,69.000,5.000,0
"03/09/08","06:14:03",263320.000,"cc",28304.756,6.00,6,0.100,232168.000,0.200,28723.000,0.300,1835.000,0.500,504.000,1.000,90.000,5.000,0
"03/09/08","06:14:09",372121.000,"cc",28271.705,6.00,6,0.100,322573.000,0.200,46613.000,0.300,2412.000,0.500,443.000,1.000,80.000,5.000,0
"03/09/08","06:14:15",216302.000,"cc",28287.201,6.00,6,0.100,180240.000,0.200,33828.000,0.300,1815.000,0.500,353.000,1.000,66.000,5.000,0
"03/09/08","06:14:21",226597.000,"cc",28348.660,6.00,6,0.100,201415.000,0.200,23322.000,0.300,1454.000,0.500,362.000,1.000,44.000,5.000,0
"03/09/08","06:14:27",152540.000,"cc",28338.838,6.00,6,0.100,136061.000,0.200,14966.000,0.300,1134.000,0.500,316.000,1.000,63.000,5.000,0
"03/09/08","06:14:33",171446.000,"cc",28280.297,6.00,6,0.100,152408.000,0.200,17478.000,0.300,1171.000,0.500,337.000,1.000,52.000,5.000,0
"03/09/08","06:14:39",239638.000,"cc",28339.617,6.00,6,0.100,212960.000,0.200,24885.000,0.300,1431.000,0.500,314.000,1.000,48.000,5.000,0
"03/09/08","06:14:45",262283.000,"cc",28336.732,6.00,6,0.100,206318.000,0.200,52627.000,0.300,2758.000,0.500,492.000,1.000,88.000,5.000,0
"03/09/08","06:14:51",330296.000,"cc",28381.881,6.00,6,0.100,276537.000,0.200,50445.000,0.300,2720.000,0.500,513.000,1.000,81.000,5.000,0
"03/09/08","06:14:57",308904.000,"cc",28292.553,6.00,6,0.100,270694.000,0.200,35564.000,0.300,2048.000,0.500,519.000,1.000,79.000,5.000,0
"03/09/08","06:15:03",277387.000,"cc",28199.342,6.00,6,0.100,219482.000,0.200,54589.000,0.300,2797.000,0.500,442.000,1.000,77.000,5.000,0
"03/09/08","06:15:09",409249.000,"cc",28366.734,6.00,6,0.100,353007.000,0.200,52889.000,0.300,2738.000,0.500,513.000,1.000,102.000,5.000,0
"03/09/08","06:15:15",361582.000,"cc",28343.357,6.00,6,0.100,315634.000,0.200,43241.000,0.300,2210.000,0.500,417.000,1.000,80.000,5.000,0
"03/09/08","06:15:21",231826.000,"cc",28331.088,6.00,6,0.100,206101.000,0.200,24002.000,0.300,1355.000,0.500,324.000,1.000,44.000,5.000,0
"03/09/08","06:15:27",207640.000,"cc",28298.705,6.00,6,0.100,185584.000,0.200,20226.000,0.300,1313.000,0.500,446.000,1.000,71.000,5.000,0
"03/09/08","06:15:33",225133.000,"cc",28276.596,6.00,6,0.100,200819.000,0.200,22331.000,0.300,1384.000,0.500,504.000,1.000,95.000,5.000,0
"03/09/08","06:15:39",146385.000,"cc",28369.428,6.00,6,0.100,130684.000,0.200,13696.000,0.300,1341.000,0.500,569.000,1.000,95.000,5.000,0
"03/09/08","06:15:45",155974.000,"cc",28326.797,6.00,6,0.100,138412.000,0.200,15325.000,0.300,1571.000,0.500,586.000,1.000,80.000,5.000,0
"03/09/08","06:15:51",177621.000,"cc",28320.912,6.00,6,0.100,158294.000,0.200,17531.000,0.300,1291.000,0.500,432.000,1.000,73.000,5.000,0
"03/09/08","06:15:57",143569.000,"cc",28328.619,6.00,6,0.100,127570.000,0.200,14114.000,0.300,1276.000,0.500,525.000,1.000,84.000,5.000,0
"03/09/08","06:16:03",301713.000,"cc",28331.190,6.00,6,0.100,265107.000,0.200,33861.000,0.300,2130.000,0.500,515.000,1.000,100.000,5.000,0
"03/09/08","06:16:09",223142.000,"cc",28299.678,6.00,6,0.100,197814.000,0.200,23113.000,0.300,1656.000,0.500,485.000,1.000,74.000,5.000,0
"03/09/08","06:16:15",289139.000,"cc",28329.492,6.00,6,0.100,255632.000,0.200,31295.000,0.300,1753.000,0.500,380.000,1.000,79.000,5.000,0